sat.trackr.live / text

‹ back to catalog

STARLINK-1366

NORAD 45569 · 2020-025AQ

PAYLOAD ACTIVE UNKNOWN

§ Identity

Operator
Country
US
Launch date
2020-04-22
Launch site
AFETR
Launch vehicle
Mass (kg)
RCS (m²)

Purposes: comms

External: N2YO · Heavens-Above · Gunter

§ Orbital elements

Epoch: 2026-06-09T05:32:27.053952Z

Period
87.85 min
Inclination
53.0198°
Eccentricity
0.0009105
Mean motion
16.39147106 rev/d
Perigee alt
162.1 km
Apogee alt
174.0 km
Semi-major
6,546.2 km
B*
5.5120e-4
RAAN
291.4132°
Arg perigee
304.9011°
Mean anomaly
55.1179°
Rev number
34,061

§ Raw data

STARLINK-13661 45569U 20025AQ  26160.23086868  .06946550  12412-4  55120-3 0  99992 45569  53.0198 291.4132 0009105 304.9011  55.1179 16.39147106340612

JSON: /api/v1/satellites/45569 · /tle

For live sub-satellite position, see the globe view (requires WebGL).

§ Visibility from observer

Set your observer location to see the next 7 days of passes ≥ 10°. The values pass through the URL so the page stays shareable.

No JS? Fill the form by hand. The geolocation button needs JavaScript.